map of BPS home
Great Circle Mapper logo
BPS - Airport
Location
City:  Porto Seguro, Bahia, Brazil
ICAO / IATA:SBPS / BPS

Details
Type:Airport (Aerodrome, Airfield)
Latitude:1626'19"S (-16.438638)
Longitude:3904'51"W (-39.080916)
Datum:WGS 1984
Elevation:168 ft (51 m)
Variation:23.76W (WMM2015 magnetic declination)
-0.05 annual change
Runways:1
Longest:6562 × 148 ft (2000 × 45 m), paved

Time
Time Zone:UTC-3
Local Time:

Weather
METAR:SBPS 300100Z 12003KT 070V190 9999 FEW015 SCT020 23/21 Q1022
TAF:SBPS 292100Z 3000/3024 10004KT 7000 SCT020 TN20/3008Z TX26/3017Z
BECMG 3002/3003 26004KT
TEMPO 3009/3011 4000 RA SCT015 BKN020
BECMG 3012/3014 12008KT
RMK PEI

Related Locations
Nearby:
Farthest:TIQ: 12119 mi / 19504 km
Tinian Island [Tinian Intl (West Tinian)], MP, US

Find:

   beyond  
but within

Other Information
Maps:
NOTAMs:
Links:
Sources:

  
flag of Brazil
flag of Bahia
  

Sectional Chart

Flight Planning
at skyvector.com

Satellite Image

Google Maps Satellite view

 

Copyright © 2004-2015 Karl L. Swartz. All rights reserved.
The Great Circle Mapper name and logo are trademarks of the Great Circle Mapper.
All other trademarks mentioned herein belong to their respective owners.
Please see credits for attibutions and further copyright information.

  Follow gcmap on Facebook Follow gcmap on Twitter Follow gcmap on Google+

hCard Microformat

Geo Microformat